User: anonymous   Login
Location: Dentlein
(49.1477°N, 10.4231°E)
Time: 12:02:24
(UTC+00:00)
Language:

Cosmos 1833 Rocket - Orbit

View from above orbital plane
View from above orbital plane
View from above satellite
View from above satellite

Ground track
Ground track

The orbit data is extracted from the following two-line orbital elements,

1 17590U 87027B   24203.93102493  .00000296  00000-0  17113-3 0  9991
2 17590  71.0036  91.7534 0006918 298.5854  61.4573 14.16989272930989
Epoch (UTC): 21 July 2024 22:20:40
Eccentricity: 0.0006918
inclination: 71.0036°
perigee height: 830 km
apogee height: 840 km
right ascension of ascending node: 91.7534°
argument of perigee: 298.5854°
revolutions per day: 14.16989272
mean anomaly at epoch: 61.4573°
orbit number at epoch: 93098

The dashed part of the orbit path shows where the satellite is in the earth's shadow,  

DLR